Hayward, WI

11:38 AM CST on November 18, 2017 (GMT -0600)
Sawyer County

Weather History for KHYR - May, 2012

Change the Weather History Date:

Wednesday, May 16, 2012

  Actual Average Record
Temperature  
Mean Temperature 48 °F -  
Max Temperature 66 °F 81 °F 80 °F (2006)
Min Temperature 30 °F 51 °F 26 °F (2011)
Degree Days  
Heating Degree Days 17    
Moisture  
Dew Point 31 °F    
Average Humidity 61    
Maximum Humidity 92    
Minimum Humidity 20    
Precipitation  
Precipitation 0.00 in - - ()
Sea Level Pressure  
Sea Level Pressure 30.12 in    
Wind  
Wind Speed 1 mph (ENE)    
Max Wind Speed 6 mph    
Max Gust Speed -    
Visibility 9 miles    
Events      
Averages and records for this station are not official NWS values.
T = Trace of Precipitation, MM = Missing Value Source: NWS Daily Summary

Daily Weather History Graph

Daily Weather History Graph

Search for Another Location

Airport or City:

Trip Planner

Search our weather history database for the weather conditions in past years. The results will help you decide how hot, cold, wet, or windy it might be!

Date:

Astronomy

May. 16, 2012 Rise Set
Actual Time 5:31 AM CDT 8:33 PM CDT
Civil Twilight 4:56 AM CDT 9:08 PM CDT
Nautical Twilight 4:11 AM CDT 9:54 PM CDT
Astronomical Twilight 3:16 AM CDT 10:49 PM CDT
Moon 3:13 AM CDT (5/16) 4:38 PM CDT (5/16)
Length of Visible Light 16h 12m
Length of Day
15h 01m
Waning Crescent, 16% of the Moon is Illuminated
May 16
Waning Crescent
May 20
New
May 28
First Quarter
Jun 4
Full
Jun 11
Last Quarter

Hourly Weather History & Observations

Time (CDT) Temp. Dew Point Humidity Pressure Visibility Wind Dir Wind Speed Gust Speed Precip Events Conditions
12:53 AM 37.0 °F 34.0 °F 89% 30.09 in 10.0 mi Calm Calm - N/A   Clear
1:53 AM 35.1 °F 32.0 °F 89% 30.10 in 10.0 mi Calm Calm - N/A   Clear
2:53 AM 34.0 °F 30.9 °F 89% 30.11 in 10.0 mi Calm Calm - N/A   Clear
3:16 AM 33.8 °F 30.2 °F 87% 30.10 in 2.5 mi Calm Calm - N/A   Scattered Clouds
3:19 AM 33.8 °F 30.2 °F 87% 30.10 in 1.0 mi Calm Calm - N/A   Mist
3:27 AM 33.8 °F 30.2 °F 87% 30.10 in 2.5 mi Calm Calm - N/A   Partly Cloudy
3:34 AM 33.8 °F 30.2 °F 87% 30.10 in 10.0 mi Calm Calm - N/A   Partly Cloudy
3:53 AM 33.1 °F 30.0 °F 89% 30.13 in 10.0 mi Calm Calm - N/A   Clear
4:53 AM 30.9 °F 28.9 °F 92% 30.14 in 10.0 mi Calm Calm - N/A   Clear
5:53 AM 30.0 °F 28.0 °F 92% 30.16 in 10.0 mi Calm Calm - N/A   Clear
6:53 AM 35.1 °F 33.1 °F 92% 30.17 in 10.0 mi Calm Calm - N/A   Clear
7:53 AM 44.1 °F 37.0 °F 76% 30.17 in 10.0 mi Calm Calm - N/A   Clear
8:53 AM 52.0 °F 36.0 °F 54% 30.17 in 10.0 mi Calm Calm - N/A   Clear
9:53 AM 55.9 °F 27.0 °F 33% 30.18 in 10.0 mi Variable 3.5 mph - N/A   Clear
10:53 AM 57.9 °F 28.9 °F 33% 30.18 in 10.0 mi NE 5.8 mph - N/A   Clear
11:53 AM 61.0 °F 28.0 °F 29% 30.17 in 10.0 mi Calm Calm - N/A   Clear
12:53 PM 62.1 °F 27.0 °F 26% 30.16 in 10.0 mi Variable 5.8 mph - N/A   Clear
1:53 PM 64.0 °F 27.0 °F 25% 30.14 in 10.0 mi Calm Calm - N/A   Clear
2:53 PM 64.9 °F 27.0 °F 24% 30.12 in 10.0 mi NNE 5.8 mph - N/A   Clear
3:53 PM 66.0 °F 28.9 °F 25% 30.11 in 10.0 mi Variable 4.6 mph - N/A   Clear
4:53 PM 66.0 °F 24.1 °F 20% 30.09 in 10.0 mi Calm Calm - N/A   Clear
5:53 PM 66.0 °F 26.1 °F 22% 30.09 in 10.0 mi Calm Calm - N/A   Clear
6:53 PM 64.9 °F 28.0 °F 25% 30.08 in 10.0 mi Calm Calm - N/A   Clear
7:53 PM 61.0 °F 33.1 °F 35% 30.07 in 10.0 mi SSE 3.5 mph - N/A   Clear
8:53 PM 52.0 °F 37.9 °F 59% 30.08 in 10.0 mi Calm Calm - N/A   Clear
9:53 PM 46.0 °F 37.0 °F 71% 30.09 in 10.0 mi Calm Calm - N/A   Clear
10:53 PM 44.1 °F 37.9 °F 79% 30.08 in 10.0 mi Calm Calm - N/A   Clear
11:53 PM 43.0 °F 37.0 °F 80% 30.08 in 10.0 mi Calm Calm - N/A   Clear